| time (UTC) | temp C | wind direction | speed KPH | gust KPH | rain 1hr cm | rain 24hr cm | rain mn cm | humidity % | barometer mb |
| 20260507052101 | 8 | 23 | 3.2 | 6.4 | 0.00 | 0.64 | 0.64 | 90 | 998.4 |
| 20260507051058 | 8 | 23 | 3.2 | 6.4 | 0.00 | 0.64 | 0.64 | 90 | 998.4 |
| 20260507050056 | 8 | 20 | 1.6 | 6.4 | 0.00 | 0.64 | 0.64 | 90 | 998.3 |
| 20260507045053 | 8 | 23 | 0.0 | 3.2 | 0.00 | 0.64 | 0.64 | 90 | 998.3 |
| 20260507044051 | 8 | 41 | 1.6 | 3.2 | 0.00 | 0.64 | 0.64 | 90 | 998.3 |
| 20260507043048 | 8 | 40 | 1.6 | 6.4 | 0.00 | 0.64 | 0.64 | 90 | 998.1 |
| 20260507042045 | 8 | 45 | 1.6 | 6.4 | 0.00 | 0.64 | 0.64 | 90 | 998.0 |
| 20260507041043 | 8 | 35 | 1.6 | 3.2 | 0.00 | 0.64 | 0.64 | 90 | 997.9 |
| 20260507040040 | 8 | 36 | 1.6 | 6.4 | 0.00 | 0.64 | 0.64 | 90 | 997.7 |
| 20260507035038 | 8 | 15 | 1.6 | 6.4 | 0.00 | 0.64 | 0.64 | 90 | 997.7 |
| 20260507034035 | 8 | 5 | 1.6 | 6.4 | 0.00 | 0.64 | 0.64 | 90 | 997.6 |
| 20260507033032 | 8 | 33 | 1.6 | 6.4 | 0.00 | 0.64 | 0.64 | 90 | 997.5 |
| 20260507032030 | 8 | 27 | 1.6 | 6.4 | 0.00 | 0.64 | 0.64 | 90 | 997.5 |
| 20260507031027 | 8 | 36 | 1.6 | 6.4 | 0.03 | 0.64 | 0.64 | 90 | 997.4 |
| 20260507030024 | 8 | 45 | 3.2 | 6.4 | 0.03 | 0.64 | 0.64 | 90 | 997.3 |
| 20260507025022 | 8 | 26 | 1.6 | 6.4 | 0.05 | 0.64 | 0.64 | 90 | 997.2 |
| 20260507024019 | 8 | 344 | 0.0 | 6.4 | 0.05 | 0.64 | 0.64 | 90 | 997.1 |
| 20260507023016 | 8 | 37 | 1.6 | 6.4 | 0.13 | 0.64 | 0.64 | 90 | 997.0 |
| 20260507022114 | 8 | 37 | 3.2 | 6.4 | 0.15 | 0.64 | 0.64 | 90 | 996.9 |
| 20260507021111 | 8 | 30 | 3.2 | 11.3 | 0.18 | 0.61 | 0.61 | 90 | 996.7 |
| 20260507020109 | 8 | 37 | 3.2 | 9.7 | 0.23 | 0.61 | 0.61 | 90 | 996.5 |
| 20260507015106 | 8 | 21 | 4.8 | 11.3 | 0.30 | 0.56 | 0.56 | 90 | 996.4 |
| 20260507014103 | 8 | 46 | 4.8 | 11.3 | 0.33 | 0.56 | 0.56 | 90 | 996.5 |
| 20260507013101 | 8 | 20 | 4.8 | 11.3 | 0.33 | 0.51 | 0.51 | 90 | 996.5 |
| 20260507012058 | 9 | 39 | 4.8 | 12.9 | 0.33 | 0.48 | 0.48 | 90 | 996.5 |
| 20260507011055 | 9 | 42 | 4.8 | 9.7 | 0.33 | 0.43 | 0.43 | 90 | 996.5 |
| 20260507010053 | 9 | 45 | 6.4 | 11.3 | 0.30 | 0.36 | 0.36 | 90 | 996.4 |
| 20260507005050 | 9 | 27 | 3.2 | 9.7 | 0.28 | 0.28 | 0.28 | 89 | 996.5 |
| 20260507004047 | 9 | 48 | 3.2 | 6.4 | 0.23 | 0.23 | 0.23 | 89 | 996.6 |
| 20260507003045 | 9 | 37 | 4.8 | 11.3 | 0.18 | 0.18 | 0.18 | 89 | 996.6 |
| 20260507002042 | 9 | 42 | 3.2 | 9.7 | 0.15 | 0.15 | 0.15 | 88 | 996.6 |
| 20260507001039 | 10 | 45 | 1.6 | 6.4 | 0.10 | 0.10 | 0.10 | 87 | 996.6 |
| 20260507000037 | 10 | 38 | 1.6 | 6.4 | 0.05 | 0.10 | 0.05 | 86 | 996.6 |
| 20260506235033 | 10 | 0 | 1.6 | 3.2 | 0.00 | 0.05 | 0.00 | 84 | 996.9 |
| 20260506234030 | 10 | 337 | 3.2 | 6.4 | 0.00 | 0.05 | 0.00 | 83 | 997.0 |
| 20260506233028 | 10 | 356 | 4.8 | 12.9 | 0.00 | 0.18 | 0.00 | 83 | 996.8 |
| 20260506232025 | 10 | 349 | 3.2 | 11.3 | 0.00 | 0.20 | 0.00 | 83 | 996.5 |
| 20260506231023 | 10 | 24 | 3.2 | 11.3 | 0.00 | 0.23 | 0.00 | 83 | 996.4 |
| 20260506230020 | 10 | 355 | 1.6 | 6.4 | 0.00 | 0.30 | 0.00 | 83 | 996.4 |
| 20260506225017 | 10 | 42 | 3.2 | 9.7 | 0.00 | 0.36 | 0.00 | 83 | 996.2 |
| 20260506224015 | 10 | 39 | 1.6 | 6.4 | 0.00 | 0.53 | 0.00 | 83 | 996.2 |
| 20260506223112 | 10 | 6 | 1.6 | 6.4 | 0.00 | 0.76 | 0.00 | 83 | 996.4 |
| 20260506222110 | 10 | 37 | 4.8 | 9.7 | 0.00 | 0.76 | 0.00 | 83 | 996.1 |
| 20260506221107 | 10 | 39 | 3.2 | 12.9 | 0.00 | 0.79 | 0.00 | 83 | 996.1 |
| 20260506220104 | 11 | 44 | 6.4 | 14.5 | 0.00 | 0.81 | 0.00 | 82 | 996.2 |
| 20260506215102 | 11 | 45 | 4.8 | 11.3 | 0.00 | 0.84 | 0.84 | 82 | 996.1 |
| 20260506214059 | 11 | 23 | 3.2 | 6.4 | 0.00 | 0.86 | 0.84 | 82 | 995.9 |
| 20260506213057 | 11 | 42 | 3.2 | 6.4 | 0.00 | 0.86 | 0.84 | 82 | 995.8 |
| 20260506212054 | 11 | 22 | 6.4 | 12.9 | 0.00 | 0.86 | 0.84 | 82 | 995.7 |
| 20260506211051 | 11 | 25 | 3.2 | 9.7 | 0.00 | 0.99 | 0.84 | 82 | 995.7 |
| 20260506210049 | 11 | 35 | 3.2 | 12.9 | 0.00 | 1.02 | 0.84 | 82 | 995.8 |
| 20260506205046 | 11 | 20 | 4.8 | 12.9 | 0.00 | 1.02 | 0.84 | 82 | 995.6 |
| 20260506204043 | 12 | 20 | 4.8 | 12.9 | 0.00 | 1.02 | 0.84 | 82 | 995.4 |
| 20260506203041 | 12 | 33 | 4.8 | 12.9 | 0.00 | 1.02 | 0.84 | 82 | 995.5 |
| 20260506202038 | 12 | 23 | 4.8 | 11.3 | 0.00 | 1.02 | 0.84 | 81 | 995.6 |
| 20260506201036 | 12 | 28 | 3.2 | 11.3 | 0.00 | 1.02 | 0.84 | 81 | 995.6 |
| 20260506200033 | 12 | 26 | 6.4 | 11.3 | 0.00 | 1.02 | 0.84 | 81 | 995.5 |
| 20260506195030 | 12 | 26 | 6.4 | 20.9 | 0.00 | 1.02 | 0.84 | 81 | 995.4 |
| 20260506194028 | 12 | 22 | 1.6 | 9.7 | 0.00 | 1.02 | 0.84 | 81 | 995.1 |
| 20260506193025 | 12 | 13 | 3.2 | 6.4 | 0.00 | 1.02 | 0.84 | 81 | 994.7 |
| 20260506192022 | 12 | 32 | 1.6 | 6.4 | 0.00 | 1.02 | 0.84 | 81 | 994.7 |
| 20260506191019 | 12 | 25 | 1.6 | 6.4 | 0.00 | 1.02 | 0.84 | 80 | 994.7 |
| 20260506190018 | 12 | 27 | 3.2 | 9.7 | 0.00 | 1.02 | 0.84 | 80 | 994.8 |
| 20260506185114 | 13 | 12 | 1.6 | 3.2 | 0.00 | 1.02 | 0.84 | 79 | 994.8 |
| 20260506184112 | 13 | 25 | 1.6 | 6.4 | 0.00 | 1.02 | 0.84 | 79 | 994.6 |
| 20260506183109 | 13 | 348 | 3.2 | 11.3 | 0.00 | 1.02 | 0.84 | 78 | 994.7 |
| 20260506182106 | 13 | 32 | 4.8 | 11.3 | 0.00 | 1.02 | 0.84 | 77 | 994.6 |
| 20260506181104 | 14 | 11 | 1.6 | 9.7 | 0.00 | 1.02 | 0.84 | 77 | 994.4 |
| 20260506175059 | 14 | 19 | 3.2 | 9.7 | 0.00 | 1.02 | 0.84 | 76 | 994.3 |
| 20260506174056 | 15 | 44 | 4.8 | 12.9 | 0.00 | 1.02 | 0.84 | 74 | 994.2 |
| 20260506173053 | 15 | 40 | 3.2 | 11.3 | 0.00 | 1.02 | 0.84 | 73 | 994.1 |
| 20260506172051 | 15 | 23 | 3.2 | 9.7 | 0.00 | 1.02 | 0.84 | 73 | 994.1 |
| 20260506171048 | 15 | 359 | 4.8 | 12.9 | 0.00 | 1.02 | 0.84 | 72 | 993.9 |
| 20260506170045 | 16 | 22 | 6.4 | 17.7 | 0.00 | 1.02 | 0.84 | 70 | 993.7 |
| 20260506165042 | 16 | 13 | 6.4 | 12.9 | 0.00 | 1.02 | 0.84 | 70 | 993.5 |
| 20260506164040 | 16 | 24 | 3.2 | 9.7 | 0.00 | 1.02 | 0.84 | 70 | 993.6 |
| 20260506163037 | 16 | 1 | 6.4 | 17.7 | 0.00 | 1.02 | 0.84 | 69 | 993.7 |
| 20260506162035 | 16 | 0 | 4.8 | 14.5 | 0.00 | 1.02 | 0.84 | 69 | 993.8 |
| 20260506161032 | 16 | 334 | 4.8 | 12.9 | 0.00 | 1.02 | 0.84 | 69 | 993.8 |
| 20260506160028 | 17 | 353 | 6.4 | 17.7 | 0.00 | 1.02 | 0.84 | 67 | 993.9 |
| 20260506155026 | 17 | 349 | 4.8 | 12.9 | 0.00 | 1.02 | 0.84 | 66 | 993.9 |
| 20260506154023 | 17 | 350 | 6.4 | 12.9 | 0.00 | 1.02 | 0.84 | 66 | 993.9 |
| 20260506153020 | 17 | 357 | 6.4 | 20.9 | 0.00 | 1.02 | 0.84 | 66 | 993.9 |
| 20260506152018 | 17 | 358 | 3.2 | 12.9 | 0.00 | 1.02 | 0.84 | 64 | 993.9 |
| 20260506151015 | 18 | 0 | 4.8 | 11.3 | 0.00 | 1.02 | 0.84 | 62 | 993.9 |
| 20260506150113 | 18 | 334 | 4.8 | 11.3 | 0.00 | 1.02 | 0.84 | 59 | 993.9 |
| 20260506145110 | 18 | 28 | 1.6 | 6.4 | 0.00 | 1.02 | 0.84 | 59 | 993.8 |
| 20260506144107 | 19 | 338 | 4.8 | 12.9 | 0.00 | 1.02 | 0.84 | 59 | 993.9 |
| 20260506143105 | 18 | 357 | 4.8 | 9.7 | 0.00 | 1.02 | 0.84 | 60 | 993.9 |
| 20260506142102 | 19 | 18 | 3.2 | 9.7 | 0.00 | 1.02 | 0.84 | 60 | 993.8 |
| 20260506141100 | 19 | 251 | 4.8 | 9.7 | 0.00 | 1.02 | 0.84 | 59 | 993.9 |
| 20260506140057 | 18 | 315 | 6.4 | 12.9 | 0.00 | 1.02 | 0.84 | 63 | 994.1 |
| 20260506135054 | 18 | 332 | 4.8 | 9.7 | 0.00 | 1.02 | 0.84 | 63 | 994.1 |
| 20260506134052 | 18 | 310 | 4.8 | 9.7 | 0.00 | 1.02 | 0.84 | 61 | 994.2 |
| 20260506133049 | 18 | 292 | 8.0 | 17.7 | 0.00 | 1.02 | 0.84 | 62 | 994.2 |
| 20260506132046 | 17 | 303 | 8.0 | 14.5 | 0.00 | 1.02 | 0.84 | 64 | 994.3 |
| 20260506131044 | 18 | 268 | 8.0 | 14.5 | 0.00 | 1.02 | 0.84 | 61 | 994.2 |
| 20260506130041 | 18 | 299 | 8.0 | 17.7 | 0.00 | 1.02 | 0.84 | 60 | 994.3 |
| 20260506125039 | 18 | 300 | 8.0 | 14.5 | 0.00 | 1.02 | 0.84 | 60 | 994.2 |
| 20260506124036 | 18 | 265 | 6.4 | 14.5 | 0.00 | 1.02 | 0.84 | 61 | 994.2 |
| 20260506123033 | 18 | 273 | 11.3 | 20.9 | 0.00 | 1.02 | 0.84 | 60 | 994.3 |
| 20260506122031 | 17 | 225 | 9.7 | 14.5 | 0.00 | 1.02 | 0.84 | 62 | 994.1 |
| 20260506121028 | 17 | 290 | 11.3 | 22.5 | 0.00 | 1.02 | 0.84 | 63 | 994.2 |
| 20260506120025 | 17 | 263 | 8.0 | 14.5 | 0.00 | 1.02 | 0.84 | 65 | 994.0 |
| 20260506115022 | 17 | 258 | 9.7 | 17.7 | 0.00 | 1.02 | 0.84 | 64 | 994.2 |
| 20260506114020 | 18 | 262 | 11.3 | 24.1 | 0.00 | 1.02 | 0.84 | 65 | 994.1 |
| 20260506113017 | 17 | 293 | 9.7 | 20.9 | 0.00 | 1.02 | 0.84 | 66 | 994.1 |
| 20260506112115 | 18 | 225 | 11.3 | 17.7 | 0.00 | 1.02 | 0.84 | 63 | 994.2 |
| 20260506111112 | 17 | 273 | 12.9 | 24.1 | 0.00 | 1.02 | 0.84 | 65 | 994.1 |
| 20260506110109 | 17 | 216 | 12.9 | 24.1 | 0.00 | 1.02 | 0.84 | 68 | 994.3 |
| 20260506105106 | 17 | 210 | 12.9 | 17.7 | 0.00 | 1.02 | 0.84 | 68 | 994.2 |
| 20260506104104 | 16 | 266 | 14.5 | 25.7 | 0.00 | 1.02 | 0.84 | 68 | 994.3 |
| 20260506103101 | 16 | 240 | 6.4 | 17.7 | 0.00 | 1.02 | 0.84 | 71 | 994.1 |
| 20260506102059 | 16 | 250 | 11.3 | 17.7 | 0.00 | 1.02 | 0.84 | 71 | 994.1 |
| 20260506101056 | 16 | 267 | 9.7 | 20.9 | 0.00 | 1.02 | 0.84 | 69 | 994.0 |
| 20260506100053 | 16 | 279 | 12.9 | 22.5 | 0.00 | 1.02 | 0.84 | 67 | 993.9 |
| 20260506095051 | 17 | 264 | 12.9 | 24.1 | 0.00 | 1.02 | 0.84 | 66 | 993.8 |
| 20260506094048 | 17 | 247 | 14.5 | 24.1 | 0.00 | 1.02 | 0.84 | 66 | 993.6 |
| 20260506093045 | 16 | 217 | 17.7 | 25.7 | 0.00 | 1.02 | 0.84 | 67 | 993.4 |
| 20260506092043 | 16 | 249 | 14.5 | 29.0 | 0.00 | 1.02 | 0.84 | 68 | 993.4 |
| 20260506091040 | 16 | 251 | 9.7 | 20.9 | 0.00 | 1.02 | 0.84 | 68 | 993.2 |
| 20260506090038 | 16 | 217 | 14.5 | 33.8 | 0.00 | 1.02 | 0.84 | 68 | 993.1 |
| 20260506085035 | 16 | 218 | 14.5 | 25.7 | 0.00 | 1.02 | 0.84 | 69 | 993.0 |
| 20260506084032 | 16 | 189 | 11.3 | 24.1 | 0.00 | 1.02 | 0.84 | 69 | 992.9 |
| 20260506083030 | 16 | 232 | 16.1 | 32.2 | 0.00 | 1.02 | 0.84 | 73 | 992.7 |
| 20260506082027 | 15 | 219 | 11.3 | 22.5 | 0.00 | 1.02 | 0.84 | 74 | 992.4 |
| 20260506081024 | 16 | 253 | 12.9 | 20.9 | 0.00 | 1.02 | 0.84 | 74 | 992.4 |
| 20260506073114 | 15 | 213 | 20.9 | 35.4 | 0.00 | 1.02 | 0.84 | 74 | 992.6 |
| 20260506072112 | 15 | 231 | 12.9 | 22.5 | 0.00 | 1.02 | 0.84 | 77 | 992.6 |
| 20260506071109 | 15 | 188 | 9.7 | 20.9 | 0.00 | 1.02 | 0.84 | 78 | 992.6 |
| 20260506070106 | 15 | 202 | 12.9 | 29.0 | 0.00 | 1.02 | 0.84 | 78 | 992.6 |
| 20260506062056 | 14 | 203 | 11.3 | 24.1 | 0.00 | 1.04 | 0.84 | 81 | 992.6 |
| 20260506061053 | 13 | 228 | 8.0 | 12.9 | 0.00 | 1.04 | 0.84 | 84 | 992.5 |